Regional Weather Roundup
Issued by NWS

Home | Current Version | Previous Version | Graphics & Text | Print | Product List | Glossary On
Versions: 1 2 3 4 5 6 7 8 9 10 11 12 13 14 15 16 17 18 19 20 21 22 23 24 25 26 27 28 29 30 31 32 33 34 35 36 37 38 39 40 41 42 43 44 45 46 47 48 49 50
000
ASUS43 KMKX 230521
RWRWI

WISCONSIN REGIONAL WEATHER ROUNDUP
NATIONAL WEATHER SERVICE MILWAUKEE/SULLIVAN WI
1200 AM CDT SAT JUL 23 2016

NOTE: "FAIR" INDICATES FEW OR NO CLOUDS BELOW 12,000 FEET WITH NO
SIGNIFICANT WEATHER AND/OR OBSTRUCTIONS TO VISIBILITY.

WIZ001-002-006>008-014>016-023>028-230600-
NORTHWEST WISCONSIN

CITY           SKY/WX    TMP DP  RH WIND       PRES   REMARKS
SUPERIOR ARPT  PTCLDY    68  64  86 CALM      29.98S
ASHLAND        CLEAR     69  61  75 SW6       29.99R
HAYWARD        PTCLDY    69  66  90 CALM      30.01S
SIREN          CLOUDY    72  70  94 CALM      30.00S
CUMBERLAND     PTCLDY    70  66  88 CALM      30.01S
RICE LAKE      FOG       68  66  95 CALM      30.02S VSB 1/4
CHETEK         PTCLDY    70  70  99 CALM      30.00S
LADYSMITH      CLEAR     69  67  93 CALM      30.03S
EAU CLAIRE     PTCLDY    71  69  93 CALM      29.98S
MENOMONIE      PTCLDY    72  66  81 CALM      29.99S
NEW RICHMOND   CLOUDY    70  68  93 CALM      30.00S
OSCEOLA        CLOUDY    70  70 100 S3        30.01F
$$

WIZ003>005-009-010-017-018-230600-
NORTH CENTRAL WISCONSIN

CITY           SKY/WX    TMP DP  RH WIND       PRES   REMARKS
MANITOWISH WTR CLEAR     64  64 100 CALM      30.03S
ARBOR VITAE    CLEAR     67  64  91 CALM      30.03S
WOODRUFF       CLEAR     67  64  91 CALM      30.03S
RHINELANDER    CLEAR     65  62  90 SW3       30.03R
EAGLE RIVER    FOG       63  63 100 CALM      30.03R VSB 1/4
LAND O LAKES   CLEAR     61  60  97 CALM      30.03S
PHILLIPS       CLOUDY    68  67  99 CALM      30.02S
TOMAHAWK       CLOUDY    64  63  96 CALM      30.03S
MEDFORD        PTCLDY    64  64 100 CALM      30.02F
MERRILL        CLEAR     67  67 100 CALM      30.03R
$$

WIZ029-030-035-036-043>047-230600-
CENTRAL WISCONSIN

CITY           SKY/WX    TMP DP  RH WIND       PRES   REMARKS
WAUSAU         CLEAR     72  67  84 CALM      30.00R
MOSINEE        CLEAR     70  66  88 NW3       30.02S
MARSHFIELD     CLEAR     71  66  84 CALM      30.01R
STEVENS POINT  CLEAR     68  67  96 CALM      30.01S
WAUPACA        CLEAR     72  71  95 CALM      29.99S
WAUTOMA        CLEAR     70  69  97 CALM      30.00R
WISC RAPIDS    CLEAR     71  66  84 CALM      30.01S
CAMP DOUGLAS   FOG       68  68 100 CALM      30.00S VSB 3/4
$$

WIZ011>013-019>022-031-037>040-048>050-230600-
NORTHEAST WISCONSIN

CITY           SKY/WX    TMP DP  RH WIND       PRES   REMARKS
ANTIGO         CLEAR     65  64  96 CALM      30.04R
SHAWANO        CLEAR     72  68  87 CALM      29.99R
OCONTO         CLEAR    N/A N/A N/A CALM      29.96R
STURGEON BAY   CLEAR     72  69  90 CALM      29.97R
GREEN BAY      CLEAR     73  71  93 W7        29.97R
MANITOWOC      CLEAR     74  71  91 W3        29.97R
APPLETON       CLEAR     73  63  68 W8        29.98R
CLINTONVILLE   CLEAR     73  64  73 W3        29.98S
OSHKOSH        CLEAR     77  70  79 W6        29.98S
$$

WIZ032>034-041-042-053>061-230600-
SOUTHWEST WISCONSIN

CITY           SKY/WX    TMP DP  RH WIND       PRES   REMARKS
LA CROSSE      MOCLDY    80  75  84 E3        29.98S HX  85
SPARTA         CLEAR     70  69  99 CALM      30.02R
VIROQUA        MOCLDY    77  77  99 CALM      30.03R
BOSCOBEL       FOG       78  76  93 CALM      29.99S VSB 3/4 HX  81
PRAIRIE DU CHI CLEAR     77  75  92 CALM      29.99S
PLATTEVILLE    CLEAR     77  77 100 S3        30.02R
$$

WIZ056-057-062-063-064-067-068-230600-
SOUTH CENTRAL WISCONSIN

CITY           SKY/WX    TMP DP  RH WIND       PRES   REMARKS
REEDSBURG      CLEAR    N/A N/A N/A CALM      30.01R
BARABOO/DELLS  CLEAR     78  75  92 CALM      30.00S FOG
LONE ROCK      CLEAR     76  74  93 NE3       30.00R
MINERAL POINT  CLEAR     79  77  94 CALM      30.03R HX  83
MADISON        CLEAR     79  77  94 CALM      29.99S HX  83
MIDDLETON      MOCLDY    77  77 100 CALM      30.01S
WATERTOWN      CLEAR     76  76 100 CALM      30.00R
MONROE         CLEAR     79  75  89 W6        30.01S HX  82
JANESVILLE     CLEAR     79  77  94 CALM      29.99S HX  83
$$

WIZ051-052-058>065-066-070>072-230600-
SOUTHEAST WISCONSIN

CITY           SKY/WX    TMP DP  RH WIND       PRES   REMARKS
MILWAUKEE      PTCLDY    80  71  74 CALM      29.99R HX  84
WAUKESHA       PTCLDY    73  72  94 CALM      30.01S
MILWAUKEE/TIMM CLEAR     75  66  73 CALM      30.00S
RACINE         CLEAR     76  71  85 CALM      30.01R
BURLINGTON     PTCLDY    74  73  98 CALM      30.00R FOG
KENOSHA        CLEAR     75  73  93 CALM      30.00R
FOND DU LAC    CLEAR     74  72  93 CALM      29.99R
SHEBOYGAN      CLEAR     72  70  93 MISG      29.98R
WEST BEND      CLEAR     72  70  94 CALM      30.00S
JUNEAU         CLEAR     75  73  93 CALM      30.01S
$$

LSZ147-162-230600-
LAKE SUPERIOR

STATION/POSITION TIME  TEMP    WIND        PRES    WAVE
                       AIR SEA DIR/SP/G            HT/PER
                 (UTC) (F)     (DEG/KT/KT) (MB)    (FT/S)
W MID LAKE BUOY  0450   66 58  300/  8/ 10 1013.7R   1
DEVILS ISLAND    0500   75     310/  8/  8 1014.8R
PORT WING        0300   75     160/  4/  4 1014.2R
SAXON HARBOR     0400   69     200/  3/  4 1014.6R
$$

LMZ867-665-643>646-230600-
LAKE MICHIGAN

STATION/POSITION TIME  TEMP    WIND        PRES    WAVE
                       AIR SEA DIR/SP/G            HT/PER
                 (UTC) (F)     (DEG/KT/KT) (MB)    (FT/S)
CHAMBERS ISLAND  0400   67     200/  2/  3 1013.9R
S GREEN BAY BUOY 0500   76 75  290/  4/  6   N/A
N MID LAKE BUOY  0450   70 68  220/  6/  8 1013.0R   2/ 6
NORTHPORT PIER   0400   74     290/  2/  3 1013.2S
KEWAUNEE LAKESHO 0400   76     300/  5/  6   N/A
SHEBOYGAN LAKESH 0500   74     220/  4/  4 1015.1R
PORT WASHINGTON  0430   65      CALM  / 11 1015.9R
MILWAUKEE LAKESH 0410   70     190/  1/  1   N/A
S MID LAKE BUOY  0450   74 73  260/  4/  4 1014.6R   0
KENOSHA   LAKESH 0500   73      CALM  /  2 1015.2R
$$

TC  - TEMPERATURE IN CELSIUS
VSB - VISIBILITY IN STATUTE MILES
WCI - WIND CHILL INDEX
HX  - HEAT INDEX





USA.gov is the U.S. government's official web portal to all federal, state and local government web resources and services.